User: anonymous   Login
Location: Oshawa
(43.9000°N, 78.8670°W)
Time: 02:59:58
(UTC-04:00)
Language:

Cosmos 1707 Rocket - Orbit

View from above orbital plane
View from above orbital plane
View from above satellite
View from above satellite

Ground track
Ground track

The orbit data is extracted from the following two-line orbital elements,

1 16327U 85113B   14297.06208610  .00000904  00000-0  10848-3 0  4939
2 16327 082.5334 276.2900 0017594 298.4443 128.6897 14.82889470558529
Epoch (UTC): 24 October 2014 01:29:24
Eccentricity: 0.0017594
inclination: 82.5334°
perigee height: 608 km
apogee height: 632 km
right ascension of ascending node: 276.2900°
argument of perigee: 298.4443°
revolutions per day: 14.82889470
mean anomaly at epoch: 128.6897°
orbit number at epoch: 55852

The dashed part of the orbit path shows where the satellite is in the earth's shadow,  

DLR